Погода в Озеро-Куреево

Россия / Республика Алтай     52°27′57″N   86°45′06″E
темп.,
°C
ветер,
м/с
пор.,
м/с
влажн.,
%
обл.,
%
осадки,
мм/ч
давл.,
гПа
погр.,
м
16 апреля, пт
пт1601:00+3юв1199100 0.0 102512
04:000юв119865 0.0 102314
07:00+2юв1299100 0.0 102362
10:00+4юв23100100 0.0 102198
13:00+9юв239731 0.0 1020262
16:00+13зюз35735 0.0 1017942
19:00+9ююз11985 0.0 101710
22:00+4ююв22955 0.0 101733
17 апреля, сб
сб1701:00+3юв2396100 0.0 101649
04:00+4юв0198100 0.1 101517
07:00+3зюз1199100 0.4 101635
10:00+3сз2499100 1.9 1017335
13:00+2сз1399100 4.6 1020162
16:00+3з1294100 1.8 1020368
19:00+2зюз2594100 2.1 1022346
22:00+1зюз1398100 0.1 1024144
18 апреля, вс
вс1801:00−1зюз119667 0.1 1024147
04:00−2ююв129498 0.0 1023238
07:00−1ююв128962 0.0 1022316
10:00+3ююз137820 0.0 1019638
13:00+6з37624 0.0 10171033
16:00+7зюз376538 0.0 10151076
19:00+6ю117995 0.0 101326
22:00+3ююв2592100 0.0 101099
19 апреля, пн
пн1901:00+5ю31383100 0.3 1006306
04:00+4зюз61697100 0.9 10071290
07:00+1з81674100 3.0 10131596
10:00−2з61078100 0.5 10211375
13:00−1зсз4673100 0.8 10231187
16:00−1зсз4575100 0.4 10241037
19:00−1сз2470100 0.8 1024927
22:00−3сз2487100 0.2 1026361
20 апреля, вт
вт2001:00−4ссз1283100 0.5 1027106
04:00−5сз118821 0.0 102730
07:00−5сз13805 0.0 1028347
10:00−2сз3448100 0.0 10281685
13:000зсз3439100 0.0 10272245
16:000сз3338100 0.0 10262047
19:00−1ссз334754 0.0 10261452
22:00−5ссз116624 0.0 102710